{"data":{"norad_id":62703,"epoch":"2026-09-22T17:12:54.596448Z","epoch_age_seconds":127997,"freshness":"FRESH","line1":"1 62703U 25009CY  26265.71729857  .00000548  00000+0  56150-4 0  9998","line2":"2 62703  97.6966 342.4247 0003719  93.9928 266.1717 14.94363975 91932","mean_motion":14.94363975,"eccentricity":0.0003719,"inclination_deg":97.6966,"raan_deg":342.4247,"arg_perigee_deg":93.9928,"mean_anomaly_deg":266.1717,"bstar":5.615e-5,"rev_number":9193,"period_min":96.362066008718,"perigee_km":581.75826518105,"apogee_km":586.93696123635,"semimajor_km":6962.4846132087,"source":"CELESTRAK","updated_at":"2026-09-23T09:00:21.586231Z"}}